Hastings, NE

1:21 PM CDT on March 29, 2017 (GMT -0500)
Hastings Municipal

Weather History for KHSI - February, 2012

Change the Weather History Date:

Tuesday, February 28, 2012

  Actual Average Record
Temperature  
Mean Temperature 46 °F 34 °F  
Max Temperature 59 °F 44 °F 80 °F (2006)
Min Temperature 32 °F 23 °F -12 °F (1962)
Degree Days  
Heating Degree Days 19 31  
Month to date heating degree days 971 982  
Since 1 July heating degree days 4333 4630  
Cooling Degree Days 0 0  
Month to date cooling degree days 0 0  
Year to date cooling degree days 0 0  
Moisture  
Dew Point 38 °F    
Average Humidity 67    
Maximum Humidity 89    
Minimum Humidity 44    
Precipitation  
Precipitation 0.04 in 0.02 in 1.06 in (1951)
Month to date precipitation 1.67 0.49  
Year to date precipitation 1.81 0.90  
Snow  
Snow 0.00 in 0.20 in 7.00 in (1918)
Month to date snowfall 11.4 6.5  
Since 1 July snowfall 22.5 22.4  
Snow Depth 0.00 in    
Sea Level Pressure  
Sea Level Pressure 29.68 in    
Wind  
Wind Speed 16 mph (SSE)    
Max Wind Speed 37 mph    
Max Gust Speed 49 mph    
Visibility 9 miles    
Events Rain , Thunderstorm    
T = Trace of Precipitation, MM = Missing Value Source: NWS Daily Summary

Daily Weather History Graph

Daily Weather History Graph

Search for Another Location

Airport or City:

Trip Planner

Search our weather history database for the weather conditions in past years. The results will help you decide how hot, cold, wet, or windy it might be!

Date:

Astronomy

Feb. 28, 2012 Rise Set
Actual Time 7:09 AM CST 6:23 PM CST
Civil Twilight 6:42 AM CST 6:50 PM CST
Nautical Twilight 6:10 AM CST 7:22 PM CST
Astronomical Twilight 5:39 AM CST 7:54 PM CST
Moon 10:16 AM CST (2/28) 12:19 AM CST (2/28)
Length of Visible Light 12h 08m
Length of Day
11h 13m
Waxing Crescent, 38% of the Moon is Illuminated
Feb 28
Waxing Crescent
Feb 29
First Quarter
Mar 8
Full
Mar 14
Last Quarter
Mar 22
New

Hourly Weather History & Observations

Time (CST) Temp. Windchill Dew Point Humidity Pressure Visibility Wind Dir Wind Speed Gust Speed Precip Events Conditions
12:53 AM 37.9 °F 30.0 °F 19.0 °F 47% 30.18 in 10.0 mi SSE 12.7 mph - N/A   Overcast
1:53 AM 37.9 °F 30.5 °F 19.0 °F 47% 30.14 in 10.0 mi SSE 11.5 mph - N/A   Overcast
2:53 AM 37.9 °F 30.9 °F 19.9 °F 48% 30.11 in 10.0 mi SSE 10.4 mph - N/A   Overcast
3:53 AM 37.0 °F 29.3 °F 21.9 °F 54% 30.05 in 10.0 mi SSE 11.5 mph - N/A   Overcast
4:14 AM 37.4 °F 30.3 °F 21.2 °F 52% 30.01 in 10.0 mi SSE 10.4 mph - N/A   Overcast
4:53 AM 36.0 °F 28.5 °F 25.0 °F 64% 30.03 in 10.0 mi SE 10.4 mph - 0.00 in   Overcast
5:53 AM 35.1 °F 27.4 °F 27.0 °F 72% 30.00 in 9.0 mi SE 10.4 mph - 0.00 in   Overcast
6:53 AM 35.1 °F 28.6 °F 28.9 °F 78% 29.99 in 10.0 mi SSE 8.1 mph - 0.00 in   Overcast
7:53 AM 36.0 °F 28.5 °F 30.0 °F 79% 29.94 in 10.0 mi SE 10.4 mph - N/A   Overcast
8:53 AM 37.0 °F 29.8 °F 30.9 °F 79% 29.90 in 10.0 mi SE 10.4 mph - N/A   Overcast
9:53 AM 41.0 °F 33.5 °F 34.0 °F 76% 29.84 in 10.0 mi SE 13.8 mph - N/A   Overcast
10:53 AM 45.0 °F 38.9 °F 36.0 °F 71% 29.78 in 10.0 mi SSE 12.7 mph 21.9 mph N/A   Mostly Cloudy
11:12 AM 46.4 °F 41.1 °F 37.4 °F 71% 29.73 in 10.0 mi SSE 11.5 mph 20.7 mph N/A Thunderstorm Overcast
11:41 AM 46.4 °F 41.9 °F 41.0 °F 81% 29.71 in 7.0 mi SSE 9.2 mph - 0.02 in Rain Light Rain
11:53 AM 46.9 °F - 42.1 °F 83% 29.72 in 8.0 mi SSE 9.2 mph - 0.03 in Rain Light Rain
12:53 PM 51.1 °F - 46.0 °F 83% 29.66 in 10.0 mi South 16.1 mph 25.3 mph 0.00 in   Overcast
1:34 PM 51.8 °F - 46.4 °F 82% 29.60 in 10.0 mi SSE 16.1 mph 20.7 mph N/A   Overcast
1:53 PM 52.0 °F - 48.0 °F 86% 29.60 in 9.0 mi SSE 13.8 mph 24.2 mph N/A   Overcast
2:45 PM 53.6 °F - 50.0 °F 88% 29.54 in 6.0 mi South 18.4 mph 27.6 mph N/A   Overcast
2:53 PM 54.0 °F - 50.0 °F 86% 29.54 in 6.0 mi South 16.1 mph 27.6 mph N/A   Overcast
3:08 PM 55.4 °F - 50.0 °F 82% 29.52 in 7.0 mi South 17.3 mph 29.9 mph N/A   Overcast
3:49 PM 57.2 °F - 51.8 °F 82% 29.46 in 10.0 mi SSE 20.7 mph 28.8 mph N/A   Mostly Cloudy
3:53 PM 57.9 °F - 51.1 °F 78% 29.46 in 10.0 mi South 19.6 mph 28.8 mph N/A   Mostly Cloudy
4:53 PM 55.9 °F - 52.0 °F 87% 29.42 in 9.0 mi South 18.4 mph 28.8 mph 0.01 in   Overcast
5:07 PM 57.2 °F - 51.8 °F 82% 29.41 in 9.0 mi SSE 16.1 mph 25.3 mph N/A   Overcast
5:40 PM 57.2 °F - 51.8 °F 82% 29.37 in 9.0 mi SSE 18.4 mph 26.5 mph N/A   Mostly Cloudy
5:53 PM 55.9 °F - 52.0 °F 87% 29.37 in 9.0 mi SSE 15.0 mph 25.3 mph N/A   Overcast
6:53 PM 55.9 °F - 51.1 °F 84% 29.38 in 9.0 mi South 12.7 mph 19.6 mph N/A   Mostly Cloudy
7:18 PM 51.8 °F - 42.8 °F 71% 29.41 in 10.0 mi West 16.1 mph 26.5 mph 0.00 in   Overcast
7:53 PM 51.1 °F - 39.0 °F 63% 29.44 in 10.0 mi West 25.3 mph 33.4 mph 0.00 in   Overcast
8:53 PM 46.9 °F - 36.0 °F 66% 29.44 in 10.0 mi West 23.0 mph 32.2 mph N/A   Scattered Clouds
9:53 PM 41.0 °F 29.8 °F 33.1 °F 73% 29.45 in 10.0 mi West 29.9 mph 38.0 mph N/A   Partly Cloudy
10:53 PM 37.0 °F 25.1 °F 30.0 °F 76% 29.49 in 10.0 mi West 26.5 mph 36.8 mph N/A   Partly Cloudy
11:53 PM 32.0 °F 17.6 °F 24.1 °F 73% 29.54 in 10.0 mi West 29.9 mph 44.9 mph N/A   Clear